Location: Seclusion Ranch
(37.6167°N, 104.1333°W)
Time: 05:51:17
(UTC-06:00)

ISS - Visible Passes

Search period start: 23 September 2018 00:00
Search period end: 03 October 2018 00:00
Orbit: 403 x 408 km, 51.6° (Epoch: 23 September)

Date Brightness Start Highest point End Pass type
(mag) Time Alt. Az. Time Alt. Az. Time Alt. Az.
23 Sep -3.6 19:15:33 10° SW 19:18:45 53° SE 19:21:59 10° ENE visible
23 Sep -1.4 20:53:01 10° WNW 20:55:28 19° NNW 20:55:53 19° NNW visible
24 Sep -2.0 20:00:27 10° W 20:03:24 30° NNW 20:06:22 10° NNE visible
25 Sep -3.1 19:08:11 10° WSW 19:11:25 54° NW 19:14:39 10° NE visible
25 Sep -0.9 20:47:11 10° NW 20:48:31 12° NNW 20:49:25 11° N visible
26 Sep -1.1 19:54:07 10° WNW 19:56:19 16° NNW 19:58:31 10° NNE visible
28 Sep -0.9 19:48:32 10° NNW 19:49:20 11° NNW 19:50:08 10° N visible
